HST
1 20580U 90037B   24130.71227376  .00007618  00000-0  36385-3 0  9999
2 20580  28.4684 242.8122 0002264 349.8512  10.2035 15.17160579671182
ISS (ZARYA)
1 25544U 98067A   24131.34361111  .00016150  00000-0  27956-3 0  9996
2 25544  51.6380 143.0116 0003517 153.6886  32.7265 15.51076013452672
CXO
1 25867U 99040B   24133.48325748  .00000624  00000-0  00000+0 0  9995
2 25867  40.3932 157.1734 8928898 294.0177 359.6485  0.37809329 25582